Regional Weather Roundup
Issued by NWS

Home | Current Version | Previous Version | Text Only | Print | Product List | Glossary On
Versions: 1 2 3 4 5 6 7 8 9 10 11 12 13 14 15 16 17 18 19 20 21 22 23 24 25 26 27 28 29 30 31 32 33 34 35 36 37 38 39 40 41 42 43 44 45 46 47 48 49 50
000
ASUS45 KTFX 231010
RWRMT
MONTANA REGIONAL WEATHER ROUNDUP
NATIONAL WEATHER SERVICE GREAT FALLS MT
300 AM MST MON JAN 23 2017

NOTE: "FAIR" INDICATES FEW OR NO CLOUDS BELOW 12000 FEET WITH NO
SIGNIFICANT WEATHER AND/OR OBSTRUCTIONS TO VISIBILITY.

MTZ001>007-043-231100-
WEST OF THE DIVIDE

CITY           SKY/WX    TMP DP  RH WIND       PRES   REMARKS
KALISPELL      LGT SNOW  31  24  75 N13       29.63S WCI  21
MISSOULA       MOCLDY    24  24 100 SE8       29.63R WCI  15
BUTTE          CLOUDY    11   7  84 CALM      29.61R
MULLAN PASS    FOG       24  22  91 SW3       29.53R VSB 3/4
ANACONDA         N/A     25  16  68 SE6G17    29.60R WCI  18
DEER LODGE       N/A     19  16  86 SE3       29.64R
EUREKA           N/A     25  21  86 CALM      29.67S
HAMILTON         N/A     25  21  86 NE3       29.61R VSB 1/2
RONAN            N/A     25  23  91 CALM      29.69R
$$

MTZ008-052>055-231100-
SOUTHWEST MONTANA

CITY           SKY/WX    TMP DP  RH WIND       PRES   REMARKS
BOZEMAN        CLOUDY     9   7  92 NE7       29.63R WCI  -2
DILLON         CLOUDY   N/A N/A N/A SE8       29.60S
W YELLOWSTONE  CLOUDY    19  19 100 CALM      29.62S
ENNIS          CLEAR     27  19  74 S14       29.64S WCI  15
TWIN BRIDGES     N/A     16   7  67 NE6       29.65S WCI   8
$$

MTZ009-010-012-014-046-048-049-054-231100-
EAST SLOPES AND CENTRAL MONTANA

CITY           SKY/WX    TMP DP  RH WIND       PRES   REMARKS
CUT BANK       LGT SNOW  21  19  92 N10       29.69S FOG     WCI  10
GREAT FALLS    LGT SNOW  24  21  88 N3        29.68S VSB 1
MALMSTROM AFB  LGT SNOW  24  24 100 CALM      29.70R FOG
HELENA         CLOUDY    25  20  81 W8        29.66R WCI  16
AUGUSTA        CLOUDY    20  20  99 N6        29.65S WCI  12
BOWMANS CRNR   FLURRIES  18  17  97 N5        29.64R
CHOTEAU          N/A     23  23 100 N5        29.70R FOG
CONRAD           N/A     23  23 100 NW1       29.74S
POWER          LGT SNOW  21  20  96 NW5       29.68R
RAYNESFORD     SNOWSHWR  22  21  96 NW6       29.67R WCI  15
ULM            LGT SNOW  23  22  98 MISG      29.69S
$$

MTZ011-013-016-021-045-047-050-051-231100-
NORTH CENTRAL MONTANA

CITY           SKY/WX    TMP DP  RH WIND       PRES   REMARKS
HAVRE          CLOUDY    27  26  96 E6        29.74R WCI  20
LEWISTOWN      FOG       22  20  92 W6        29.65S VSB 1/4 WCI  14
CHINOOK          N/A     28  27  93 CALM      29.75S
DENTON         FOG       24  23  97 N8        29.64S VSB 1   WCI  14
GEYSER         SNOWSHWR  22  21  95 NE7       29.65R VSB 3/8 WCI  14
GRASS RANGE    FOG       23  22  99 NE6       29.62F VSB 3/4 WCI  15
JUDITH GAP     SNOW      19  17  93 N13       29.61R VSB 3/8 WCI   6
ROY            FOG       21  20  96 MISG      29.66F VSB 3/8
STANFORD       CLOUDY    22  22  98 NW9       29.63F FOG     WCI  12
WINIFRED       LGT SNOW  23  22  98 E6        29.66S VSB 1   WCI  15
$$

MTZ017>020-022>027-061-062-231100-
NORTHEAST MONTANA

CITY           SKY/WX    TMP DP  RH WIND       PRES   REMARKS
GLASGOW        CLOUDY    28  24  85 CALM      29.75F
JORDAN           N/A     24  22  91 E10       29.73R WCI  14
SIDNEY         CLOUDY    28  25  88 W5        29.78S
WOLF POINT     CLOUDY    29  25  85 CALM      29.77F
PLENTYWOOD       N/A     25  21  86 N7        29.76S WCI  17
POPLAR           N/A     28  25  86 N7        29.77F WCI  21
$$

MTZ028>42-056>058-231100-
SOUTHCENTRAL AND SOUTHEAST MONTANA

CITY           SKY/WX    TMP DP  RH WIND       PRES   REMARKS
BAKER          FOG       21  19  92 SE14      29.73F VSB 1/4 WCI   8
BILLINGS       CLOUDY    21  19  92 N5        29.64F
LIVINGSTON     CLOUDY    20  15  81 S7        29.59S WCI  11
MILES CITY     CLOUDY    23  20  88 E7        29.72S FOG     WCI  15
BIG TIMBER     CLEAR     23  18  80 N3        29.63S
FORSYTH          N/A     19  19 100 E6        29.71R VSB 1/4 WCI  11
HARLOWTON      MOCLDY    19  17  90 N3        29.61F
LAUREL           N/A     20  11  68 CALM      29.65F
$$

REGIONAL REPORTS...DAKOTAS

CITY           SKY/WX    TMP DP  RH WIND       PRES   REMARKS
WILLISTON      CLOUDY    27  24  89 CALM      29.77F
MINOT          CLOUDY    28  21  75 W14       29.77F WCI  17
DICKINSON      CLOUDY    24  19  81 CALM      29.75S
BEACH          CLOUDY    23  23 100 E6        29.77F WCI  16
CROSBY         CLOUDY    25  23  93 W9        29.79F WCI  15
TIOGA          CLOUDY    25  25 100 W5        29.77F
WATFORD CITY   CLOUDY    28  25  86 NW5       29.77F
BISMARCK       CLOUDY    30  23  75 W3        29.81F
GRAND FORKS    CLOUDY    33  27  78 W5        29.77S
FARGO          CLOUDY    35  29  78 W13       29.80S WCI  26
BUFFALO SD       N/A     17  13  84 SE3       29.66F
RAPID CITY     PTCLDY    21  19  92 E6        29.70F WCI  13
$$

REGIONAL REPORTS...WYOMING/IDAHO/WASHINGTON

CITY           SKY/WX    TMP DP  RH WIND       PRES   REMARKS
GILLETTE       CLOUDY    32  25  75 S9        29.59F WCI  24
SHERIDAN       CLOUDY    21  16  81 SW7       29.64R WCI  12
BUFFALO WY     CLOUDY    30  16  56 NW8       29.60S WCI  22
CODY           CLOUDY    20  14  77 S5        29.62S
YELLOWSTONE LA   N/A     11   9  92 CALM      29.62F
IDAHO FALLS    CLOUDY    29  29 100 N5        29.62F
SALMON         CLOUDY     7   7 100 CALM      29.65S
BOISE          CLOUDY    29  27  92 NW5       29.61R
SPOKANE        FOG       31  30  96 SE9       29.63R VSB 1/4 WCI  23
$$

REGIONAL REPORTS...ALBERTA

CITY           SKY/WX    TMP DP  RH WIND       PRES   REMARKS
EDMONTON         N/A     14   7  73 NE2       29.87S VSB 3/8
LETHBRIDGE     FRZ RAIN  21 N/A N/A NE7       29.77S VSB 1/4 WCI  13
MEDICINE HAT   CLOUDY    21  19  93 N8        29.80S WCI  12
WATERTON GATE    N/A     21  19  93 NE1         N/A
MILK RIVER       N/A     19  18  93 NE5         N/A
$$

REGIONAL REPORTS...SASKATCHEWAN

CITY           SKY/WX    TMP DP  RH WIND       PRES   REMARKS
SWIFT CURRENT  CLOUDY    16  14  93 NW12      29.74S WCI   3
REGINA         CLOUDY    19  16  86 W13       29.77F WCI   7
SASKATOON      LGT SNOW  16  10  79 N14       29.82R WCI   1
VAL MARIE        N/A     23  21  93 N8          N/A  WCI  14
ROCKGLEN         N/A     21  19  93 NW7         N/A  WCI  13
ASSINIBOIA       N/A     14  12  92 N2          N/A
$$



USA.gov is the U.S. government's official web portal to all federal, state and local government web resources and services.